Flag for Germany Weather past 2 weeks in Neumarkt in der Oberpfalz, Bavaria, Germany

Now
52 °F

Passing clouds.


Feels Like: 52 °F
Forecast: 57 / 82 °F
Wind: 2 mph from North

Location: Hohenfels

Current Time: Aug 1, 2015 at 5:51:02 AM

Latest Report: Aug 1, 2015 at 4:58 AM


Visibility: N/A

Pressure: 29.93 "Hg

Humidity: 72%

Dew point: 43 °F

Location of Neumarkt in der OberpfalzLocation

Historic Weather in Neumarkt in der Oberpfalz — Graph

°F

Neumarkt in der Oberpfalz temperature yesterday

Maximum temperature yesterday: 75 °F (at 4:58 PM)
Minimum temperature yesterday: 43 °F (at 4:58 AM)
Average temperature yesterday: 59 °F

Past Weeks' High & Low Weather Summary

 TemperatureHumidityPressure
High97 °F (Jul 22, 4:58 PM)100% (Jul 23, 3:58 AM)30.10 "Hg (Jul 23, 3:58 AM)
Low43 °F (Jul 31, 4:58 AM)23% (Jul 22, 4:58 PM)29.66 "Hg (Jul 25, 2:58 AM)
Average68 °F64%29.91 "Hg
* Reported Jul 17 4:58 AM — Aug 1 4:58 AM, Neumarkt in der Oberpfalz, Weather by CustomWeather, © 2015

Note: Actual official high and low records may vary slightly from our data, if they occured in-between our weather recording intervals... More about our weather records

Advertising

Neumarkt in der Oberpfalz weather history for previous 24 hours

 ConditionsComfort  
Time TempWeatherWind HumidityBarometerVisibility
4:58 AM
Sat, Aug 1
52 °FPassing clouds.2 mph72%29.93 "HgN/A
3:58 AM50 °FOvercast.2 mph76%29.96 "HgN/A
2:58 AM50 °FPassing clouds.5 mph76%29.96 "HgN/A
1:58 AM50 °FPassing clouds.3 mph76%29.98 "HgN/A
12:58 AM52 °FClear.3 mph72%29.97 "HgN/A
11:58 PM
Fri, Jul 31
52 °FClear.No wind72%29.98 "HgN/A
10:58 PM54 °FClear.2 mph72%29.99 "HgN/A
9:58 PM57 °FClear.3 mph63%30.00 "HgN/A
8:58 PM63 °FSunny.5 mph56%29.98 "HgN/A
7:58 PM72 °FSunny.2 mph31%29.98 "HgN/A
6:58 PM73 °FSunny.2 mph27%29.99 "HgN/A
5:58 PM73 °FSunny.2 mph27%30.00 "HgN/A
4:58 PM75 °FSunny.1 mph27%30.01 "HgN/A
3:58 PM72 °FSunny.3 mph31%30.02 "HgN/A
2:58 PM72 °FSunny.5 mph31%30.04 "HgN/A
1:58 PM70 °FSunny.2 mph33%30.06 "HgN/A
12:58 PM68 °FPassing clouds.3 mph35%30.08 "HgN/A
11:58 AM66 °FPassing clouds.No wind40%30.09 "HgN/A
10:58 AM64 °FSunny.2 mph46%30.09 "HgN/A
9:58 AM61 °FSunny.7 mph55%30.10 "HgN/A
8:58 AM59 °FSunny.3 mph59%30.10 "HgN/A
7:58 AM54 °FSunny.No wind72%30.08 "HgN/A
6:58 AM45 °FSunny.2 mph87%30.08 "HgN/A
5:58 AM43 °FClear.3 mph93%30.08 "HgN/A
Weather by CustomWeather, © 2015

See weather overviewHow to use our weather pages